| time (UTC) | temp F | wind direction | speed MPH | gust MPH | rain 1hr in | rain 24hr in | rain mn in | humidity % | barometer mb |
| 20260901233027 | 91 | 57 | 3.0 | 5.0 | 0.00 | 0.00 | 0.00 | 57 | 1013.3 |
| 20260901231505 | 91 | 86 | 3.0 | 9.0 | 0.00 | 0.00 | 0.00 | 55 | 1013.2 |
| 20260901230008 | 91 | 168 | 3.0 | 8.0 | 0.00 | 0.00 | 0.00 | 59 | 1013.3 |
| 20260901224515 | 91 | 79 | 2.0 | 9.0 | 0.00 | 0.00 | 0.00 | 59 | 1013.2 |
| 20260901223020 | 91 | 60 | 6.0 | 11.0 | 0.00 | 0.00 | 0.00 | 59 | 1013.4 |
| 20260901221526 | 91 | 62 | 5.0 | 7.0 | 0.00 | 0.00 | 0.00 | 60 | 1013.3 |
| 20260901220007 | 90 | 79 | 3.0 | 8.0 | 0.00 | 0.00 | 0.00 | 63 | 1013.5 |
| 20260901214511 | 90 | 53 | 3.0 | 7.0 | 0.00 | 0.00 | 0.00 | 63 | 1013.6 |
| 20260901213025 | 91 | 359 | 5.0 | 11.0 | 0.00 | 0.00 | 0.00 | 62 | 1013.6 |
| 20260901211526 | 92 | 69 | 9.0 | 13.0 | 0.00 | 0.00 | 0.00 | 57 | 1013.6 |
| 20260901210030 | 93 | 110 | 6.0 | 10.0 | 0.00 | 0.00 | 0.00 | 53 | 1013.7 |
| 20260901204512 | 93 | 75 | 4.0 | 9.0 | 0.00 | 0.00 | 0.00 | 56 | 1013.8 |
| 20260901203012 | 94 | 82 | 3.0 | 6.0 | 0.00 | 0.00 | 0.00 | 52 | 1014.0 |
| 20260901201517 | 93 | 77 | 6.0 | 11.0 | 0.00 | 0.00 | 0.00 | 53 | 1014.2 |
| 20260901200025 | 94 | 56 | 2.0 | 7.0 | 0.00 | 0.00 | 0.00 | 54 | 1014.3 |
| 20260901194531 | 94 | 101 | 2.0 | 11.0 | 0.00 | 0.00 | 0.00 | 52 | 1014.4 |
| 20260901193008 | 96 | 65 | 1.0 | 9.0 | 0.00 | 0.00 | 0.00 | 52 | 1014.6 |
| 20260901191517 | 96 | 77 | 4.0 | 10.0 | 0.00 | 0.00 | 0.00 | 50 | 1014.8 |
| 20260901190025 | 93 | 49 | 3.0 | 12.0 | 0.00 | 0.00 | 0.00 | 58 | 1015.0 |
| 20260901184526 | 91 | 340 | 1.0 | 11.0 | 0.00 | 0.00 | 0.00 | 62 | 1015.3 |
| 20260901183055 | 92 | 58 | 2.0 | 6.0 | 0.00 | 0.00 | 0.00 | 58 | 1015.4 |
| 20260901181508 | 92 | 53 | 5.0 | 9.0 | 0.00 | 0.00 | 0.00 | 59 | 1015.7 |
| 20260901180020 | 92 | 24 | 2.0 | 5.0 | 0.00 | 0.00 | 0.00 | 57 | 1016.0 |
| 20260901174521 | 92 | 96 | 1.0 | 7.0 | 0.00 | 0.00 | 0.00 | 58 | 1016.1 |
| 20260901173029 | 91 | 352 | 2.0 | 5.0 | 0.00 | 0.00 | 0.00 | 59 | 1016.4 |
| 20260901171545 | 91 | 34 | 3.0 | 5.0 | 0.00 | 0.00 | 0.00 | 60 | 1016.6 |
| 20260901170015 | 91 | 67 | 7.0 | 9.0 | 0.00 | 0.00 | 0.00 | 61 | 1016.6 |
| 20260901164517 | 92 | 95 | 0.0 | 6.0 | 0.00 | 0.00 | 0.00 | 63 | 1016.6 |
| 20260901163028 | 89 | 93 | 1.0 | 9.0 | 0.00 | 0.00 | 0.00 | 64 | 1016.7 |
| 20260901161529 | 91 | 43 | 3.0 | 9.0 | 0.00 | 0.00 | 0.00 | 62 | 1016.8 |
| 20260901160032 | 90 | 320 | 2.0 | 7.0 | 0.00 | 0.00 | 0.00 | 66 | 1016.9 |
| 20260901154512 | 89 | 297 | 0.0 | 5.0 | 0.00 | 0.00 | 0.00 | 68 | 1016.8 |
| 20260901153017 | 89 | 336 | 3.0 | 6.0 | 0.00 | 0.00 | 0.00 | 71 | 1016.8 |
| 20260901151523 | 87 | 6 | 4.0 | 9.0 | 0.00 | 0.00 | 0.00 | 73 | 1016.9 |
| 20260901150027 | 85 | 297 | 2.0 | 6.0 | 0.00 | 0.00 | 0.00 | 76 | 1017.0 |
| 20260901144533 | 85 | 359 | 4.0 | 7.0 | 0.00 | 0.00 | 0.00 | 76 | 1017.0 |
| 20260901143016 | 85 | 1 | 2.0 | 4.0 | 0.00 | 0.00 | 0.00 | 79 | 1017.0 |
| 20260901141531 | 84 | 343 | 0.0 | 6.0 | 0.00 | 0.00 | 0.00 | 80 | 1017.1 |
| 20260901140024 | 83 | 352 | 1.0 | 4.0 | 0.00 | 0.00 | 0.00 | 81 | 1017.1 |
| 20260901134509 | 82 | 359 | 1.0 | 3.0 | 0.00 | 0.00 | 0.00 | 83 | 1017.1 |
| 20260901133011 | 81 | 13 | 0.0 | 5.0 | 0.00 | 0.00 | 0.00 | 85 | 1017.0 |
| 20260901131520 | 78 | 68 | 0.0 | 2.0 | 0.00 | 0.00 | 0.00 | 88 | 1016.7 |
| 20260901130022 | 76 | 95 | 0.0 | 0.0 | 0.00 | 0.00 | 0.00 | 90 | 1016.5 |
| 20260901124529 | 75 | 138 | 0.0 | 0.0 | 0.00 | 0.00 | 0.00 | 92 | 1016.3 |
| 20260901123005 | 74 | 138 | 0.0 | 0.0 | 0.00 | 0.00 | 0.00 | 92 | 1016.3 |
| 20260901121516 | 73 | 138 | 0.0 | 0.0 | 0.00 | 0.00 | 0.00 | 91 | 1016.2 |
| 20260901120021 | 73 | 138 | 0.0 | 0.0 | 0.00 | 0.00 | 0.00 | 91 | 1016.2 |
| 20260901114525 | 73 | 138 | 0.0 | 0.0 | 0.00 | 0.00 | 0.00 | 91 | 1016.1 |
| 20260901113032 | 73 | 138 | 0.0 | 0.0 | 0.00 | 0.00 | 0.00 | 91 | 1016.0 |
| 20260901111508 | 73 | 138 | 0.0 | 0.0 | 0.00 | 0.00 | 0.00 | 91 | 1015.8 |
| 20260901110017 | 73 | 138 | 0.0 | 0.0 | 0.00 | 0.00 | 0.00 | 91 | 1015.8 |
| 20260901104522 | 74 | 138 | 0.0 | 0.0 | 0.00 | 0.00 | 0.00 | 91 | 1015.7 |
| 20260901103026 | 73 | 138 | 0.0 | 0.0 | 0.00 | 0.00 | 0.00 | 90 | 1015.7 |
| 20260901101533 | 74 | 138 | 0.0 | 0.0 | 0.00 | 0.00 | 0.00 | 90 | 1015.7 |
| 20260901100009 | 74 | 138 | 0.0 | 0.0 | 0.00 | 0.00 | 0.00 | 90 | 1015.5 |
| 20260901094516 | 74 | 138 | 0.0 | 0.0 | 0.00 | 0.00 | 0.00 | 90 | 1015.5 |
| 20260901093024 | 74 | 138 | 0.0 | 0.0 | 0.00 | 0.00 | 0.00 | 90 | 1015.6 |
| 20260901091533 | 75 | 138 | 0.0 | 0.0 | 0.00 | 0.00 | 0.00 | 89 | 1015.6 |
| 20260901090029 | 75 | 138 | 0.0 | 0.0 | 0.00 | 0.00 | 0.00 | 89 | 1015.6 |
| 20260901084511 | 75 | 138 | 0.0 | 0.0 | 0.00 | 0.00 | 0.00 | 89 | 1015.7 |
| 20260901083019 | 75 | 138 | 0.0 | 0.0 | 0.00 | 0.00 | 0.00 | 89 | 1015.9 |
| 20260901081525 | 75 | 138 | 0.0 | 0.0 | 0.00 | 0.00 | 0.00 | 88 | 1015.9 |
| 20260901080027 | 76 | 138 | 0.0 | 0.0 | 0.00 | 0.00 | 0.00 | 88 | 1015.9 |
| 20260901074532 | 76 | 135 | 0.0 | 0.0 | 0.00 | 0.00 | 0.00 | 88 | 1015.9 |
| 20260901073016 | 77 | 135 | 0.0 | 0.0 | 0.00 | 0.00 | 0.00 | 87 | 1016.1 |
| 20260901071525 | 77 | 135 | 0.0 | 0.0 | 0.00 | 0.00 | 0.00 | 87 | 1016.2 |
| 20260901070028 | 77 | 134 | 0.0 | 0.0 | 0.00 | 0.00 | 0.00 | 87 | 1016.3 |
| 20260901064531 | 76 | 226 | 0.0 | 0.0 | 0.00 | 0.00 | 0.00 | 88 | 1016.3 |
| 20260901063033 | 76 | 226 | 0.0 | 0.0 | 0.00 | 0.00 | 0.00 | 87 | 1016.3 |
| 20260901061517 | 77 | 226 | 0.0 | 0.0 | 0.00 | 0.00 | 0.00 | 87 | 1016.2 |
| 20260901060037 | 77 | 226 | 0.0 | 0.0 | 0.00 | 0.00 | 0.00 | 86 | 1016.2 |
| 20260901054531 | 77 | 226 | 0.0 | 0.0 | 0.00 | 0.00 | 0.00 | 86 | 1015.9 |
| 20260901053013 | 78 | 226 | 0.0 | 0.0 | 0.00 | 0.00 | 0.00 | 86 | 1015.8 |
| 20260901051516 | 78 | 226 | 0.0 | 0.0 | 0.00 | 0.00 | 0.00 | 85 | 1015.9 |
| 20260901050021 | 78 | 226 | 0.0 | 0.0 | 0.00 | 0.00 | 0.00 | 85 | 1015.7 |
| 20260901044524 | 79 | 226 | 0.0 | 0.0 | 0.00 | 0.00 | 0.00 | 84 | 1015.7 |
| 20260901043007 | 79 | 226 | 0.0 | 0.0 | 0.00 | 0.00 | 0.00 | 83 | 1015.7 |
| 20260901041511 | 80 | 226 | 0.0 | 0.0 | 0.00 | 0.00 | 0.00 | 82 | 1015.7 |
| 20260901040021 | 81 | 226 | 0.0 | 0.0 | 0.00 | 0.00 | 0.00 | 81 | 1015.5 |
| 20260901034529 | 81 | 226 | 0.0 | 0.0 | 0.00 | 0.00 | 0.00 | 80 | 1015.5 |
| 20260901033028 | 82 | 156 | 0.0 | 2.0 | 0.00 | 0.00 | 0.00 | 79 | 1015.6 |
| 20260901031510 | 82 | 119 | 0.0 | 3.0 | 0.00 | 0.00 | 0.00 | 79 | 1015.4 |
| 20260901030013 | 83 | 132 | 2.0 | 5.0 | 0.00 | 0.00 | 0.00 | 78 | 1015.2 |
| 20260901024519 | 83 | 188 | 4.0 | 9.0 | 0.00 | 0.00 | 0.00 | 78 | 1015.0 |
| 20260901023027 | 84 | 156 | 1.0 | 5.0 | 0.00 | 0.00 | 0.00 | 78 | 1014.6 |
| 20260901021535 | 84 | 169 | 3.0 | 7.0 | 0.00 | 0.00 | 0.00 | 76 | 1014.3 |
| 20260901020012 | 85 | 78 | 4.0 | 10.0 | 0.00 | 0.00 | 0.00 | 73 | 1014.1 |
| 20260901014518 | 86 | 174 | 4.0 | 9.0 | 0.00 | 0.00 | 0.00 | 71 | 1014.1 |
| 20260901013021 | 87 | 157 | 2.0 | 9.0 | 0.00 | 0.00 | 0.00 | 68 | 1014.1 |
| 20260901011535 | 87 | 59 | 4.0 | 14.0 | 0.00 | 0.00 | 0.00 | 66 | 1014.0 |
| 20260901010041 | 88 | 102 | 5.0 | 15.0 | 0.00 | 0.00 | 0.00 | 64 | 1013.9 |
| 20260901004509 | 89 | 164 | 6.0 | 16.0 | 0.00 | 0.00 | 0.00 | 62 | 1013.8 |
| 20260901003020 | 90 | 128 | 6.0 | 13.0 | 0.00 | 0.00 | 0.00 | 59 | 1013.7 |
| 20260901001528 | 91 | 125 | 6.0 | 13.0 | 0.00 | 0.00 | 0.00 | 58 | 1013.6 |
| 20260901000030 | 92 | 84 | 6.0 | 11.0 | 0.00 | 0.00 | 0.00 | 56 | 1013.6 |
| 20260831234532 | 92 | 114 | 5.0 | 16.0 | 0.00 | 0.00 | 0.00 | 55 | 1013.6 |